User: anonymous   Login
Location: Long Geng
(2.6167°N, 114.1333°E)
Time: 08:09:53
(UTC+00:00)
Language:

Meteor 1-31 Rocket - Orbit

View from above orbital plane
View from above orbital plane
View from above satellite
View from above satellite

Ground track
Ground track

The orbit data is extracted from the following two-line orbital elements,

1 12586U 81065B   21216.88252502  .00000321  00000-0  23045-4 0  9990
2 12586  97.6589 205.0406 0020059  63.2430 297.0849 15.11113799180241
Epoch (UTC): 04 August 2021 21:10:50
Eccentricity: 0.0020059
inclination: 97.6589°
perigee height: 519 km
apogee height: 546 km
right ascension of ascending node: 205.0406°
argument of perigee: 63.2430°
revolutions per day: 15.11113799
mean anomaly at epoch: 297.0849°
orbit number at epoch: 18024

The dashed part of the orbit path shows where the satellite is in the earth's shadow,  

DLR